User: anonymous   Login
Location: Unspecified
(0.0000°N, 0.0000°E)
Time: 03:51:45
(UTC+00:00)
Language:

CARTOSAT 2C - Orbit

View from above orbital plane
View from above orbital plane
View from above satellite
View from above satellite

Ground track
Ground track

The orbit data is extracted from the following two-line orbital elements,

1 41599U 16040A   19049.75529877  .00000414  00000-0  22759-4 0  9990
2 41599  97.3777 110.7301 0015544  98.2552  42.8741 15.19274598147507
Epoch (UTC): 18 February 2019 18:07:37
Eccentricity: 0.0015544
inclination: 97.3777°
perigee height: 497 km
apogee height: 519 km
right ascension of ascending node: 110.7301°
argument of perigee: 98.2552°
revolutions per day: 15.19274598
mean anomaly at epoch: 42.8741°
orbit number at epoch: 14750

The dashed part of the orbit path shows where the satellite is in the earth's shadow,  

DLR